Location: Bosdarros
(43.2167°N, 0.3667°W)
Time: 01:54:23
(UTC+00:00)

Cosmos 44 Rocket - Pass Details

Date: 22 April 2021
Orbit: 636 x 754 km, 65.1° (Epoch: 15 May)

Event Time Altitude Azimuth Distance (km) Brightness Sun altitude
Rises 21:50:56 0° 231° (SW) 3,103 6.6 -27.0°
Reaches altitude 10° 21:53:21 10° 237° (WSW) 2,205 5.9 -27.2°
Maximum altitude 21:58:12 45° 310° (NW) 1,002 4.4 -27.7°
Drops below altitude 10° 22:03:11 10° 23° (NNE) 2,272 6.3 -28.2°
Sets 22:05:43 0° 30° (NNE) 3,207 7.1 -28.5°
